#timestamp,LO_Frequency,Hit,StdDev 
1508389215.8,286047020.9,N
1508389235.7,286047021.1,N
1508389255.5,286047020.5,N
1508389275.3,286047020.5,N
1508389295.1,286047019.1,N
1508389315.9,286047021.2,N
1508389335.7,286047020.8,N
1508389355.5,286047019.1,N
1508389375.4,286047021.2,N
1508389395.2,286047020.4,N
1508389415.0,286047017.3,N
1508389415.9,286047017.3,N
1508389435.8,286047019.0,N
1508389455.6,286047020.8,Y
1508389475.4,286047003.7,P
1508389495.3,286047001.6,N
1508389515.1,286047003.9,N
1508389516.0,286047003.9,N
1508389535.8,286047007.1,N
1508389555.7,286047005.9,N
1508389575.5,286047003.7,N
1508389595.3,286047001.4,N
1508389615.2,286047000.1,N
1508389635.9,286047000.7,N
1508389655.7,286046999.0,N
1508389675.6,286046998.7,N
1508389695.4,286046999.0,N
1508389715.2,286046997.8,N
1508389735.0,286046996.5,N
1508389735.9,286046996.5,N
1508389755.8,286046995.7,N
1508389775.6,286046994.4,N
1508389795.4,286046992.5,N
1508389815.3,286046990.4,N
1508389835.1,286046990.3,N
1508389855.8,286046990.7,N
1508389875.7,286046994.1,N
1508389895.5,286046995.2,N
1508389915.3,286046994.2,N
1508389935.2,286046993.8,N
1508389955.9,286046992.5,N
1508389975.7,286046991.1,N
1508389995.6,286046987.6,N
1508390015.4,286046984.2,N
1508390035.2,286046986.5,N
1508390055.1,286046984.5,N
1508390056.0,286046984.5,N
1508390075.8,286046983.4,N
1508390095.6,286046985.1,N
1508390115.5,286046986.6,N
1508390135.3,286046982.8,Y
1508390155.1,286046989.1,P
1508390175.9,286046989.4,P
1508390195.7,286046987.4,P
1508390215.5,286046989.7,Y
1508390235.4,286046998.7,P
1508390255.2,286046999.8,N
1508390275.0,286047003.6,N
1508390275.9,286047003.6,N
1508390295.8,286047002.0,N
1508390315.6,286046998.5,N
1508390335.4,286047001.2,N
1508390355.2,286046999.8,N
1508390375.1,286046998.1,N
1508390376.0,286046998.1,N
1508390395.8,286046999.3,N
1508390415.6,286046997.0,N
1508390435.5,286046995.1,N
1508390455.3,286046996.9,N
1508390475.1,286046998.9,N
1508390495.9,286047000.0,N
1508390515.7,286047000.0,N
1508390535.5,286046998.5,N
1508390555.4,286046999.5,N
1508390575.2,286046999.5,N
1508390595.0,286047000.9,N
1508390595.9,286047000.9,N
1508390615.8,286047000.2,N
1508390635.6,286047001.6,N
1508390655.4,286047002.4,N
1508390675.2,286047002.5,N
1508390695.1,286047001.9,N
1508390696.0,286047001.9,N
1508390715.8,286047002.0,N
1508390735.6,286047000.5,N
1508390755.5,286047000.0,N
1508390775.3,286047001.0,N
1508390795.1,286047000.6,N
1508390815.9,286046999.0,N
1508390835.7,286046997.1,N
1508390855.5,286046993.8,Y
1508390875.4,286047002.3,P
1508390895.2,286047006.8,P
1508390915.0,286047010.7,P
1508390915.9,286047010.7,N
1508390935.8,286047014.0,Y
1508390955.6,286047005.2,P
1508390975.4,286047005.7,P
1508390995.3,286047007.2,P
1508391015.1,286047007.3,Y
1508391035.8,286047001.9,P
1508391055.7,286047004.2,N
1508391075.5,286047004.3,N
1508391095.3,286047002.5,N
1508391115.2,286047002.1,N
1508391135.9,286047005.0,Y
1508391155.7,286047005.8,P
1508391175.6,286047005.9,P
1508391195.4,286047004.0,P
1508391215.2,286047003.2,N
1508391235.1,286047001.9,N
1508391236.0,286047001.9,N
1508391255.8,286047005.9,Y
1508391275.6,286047000.8,P
1508391295.5,286046996.7,N
1508391315.3,286046999.4,N
1508391335.1,286046997.7,N
1508391355.9,286046999.0,N
1508391375.7,286046997.4,N
1508391395.5,286046994.9,N
1508391415.4,286046997.2,N
1508391435.2,286046997.3,N
1508391455.0,286046997.0,N
1508391455.9,286046997.0,N
1508391475.8,286046997.9,N
1508391495.6,286046996.1,N
1508391515.4,286046996.4,N
1508391535.3,286046990.8,Y
1508391555.1,286046989.3,P
1508391556.0,286046989.3,N
1508391575.8,286046990.5,N
1508391595.7,286046993.1,N
1508391615.5,286046991.9,N
1508391635.3,286046990.8,Y
1508391655.2,286046997.3,P
1508391675.9,286046998.0,N
1508391695.7,286046999.6,N
1508391715.6,286046995.0,N
1508391735.4,286046994.4,N
1508391755.2,286046993.2,N
1508391775.0,286046994.8,N
1508391776.0,286046994.8,N
1508391795.8,286046993.9,N
1508391815.6,286046991.0,Y
1508391835.5,286046993.6,P
1508391855.3,286046994.4,P
1508391875.1,286046996.6,P
1508391895.9,286046995.8,Y
1508391915.7,286046998.4,P
1508391935.5,286046997.7,N
1508391955.3,286046996.8,N
1508391975.2,286046996.8,N
1508391995.0,286046995.4,Y
1508391995.9,286046995.4,P
1508392015.8,286046998.3,N
1508392035.6,286046996.5,N
1508392055.4,286046996.9,Y
1508392075.3,286046998.1,P
1508392095.1,286046998.5,N
1508392096.0,286046998.5,N
1508392115.8,286047001.2,N
1508392135.7,286047001.0,N
1508392155.5,286046999.0,N
1508392175.3,286046994.9,Y
1508392195.2,286046996.2,P
1508392215.9,286046996.5,N
1508392235.7,286046999.4,N
1508392255.6,286046996.9,N
1508392275.4,286046997.2,N
1508392295.2,286046998.8,N
1508392315.0,286046999.6,N
1508392316.0,286046999.6,N
1508392335.8,286046996.9,N
1508392355.6,286046999.2,N
1508392375.4,286046996.8,N
1508392395.3,286046997.2,N
1508392415.1,286046996.1,Y
1508392435.8,286046995.4,P
1508392455.7,286046996.4,N
1508392475.5,286046997.8,N
1508392495.3,286046997.7,N
1508392515.2,286047000.7,N
1508392535.9,286047002.4,N
1508392555.7,286047002.4,N
1508392575.6,286047001.6,N
1508392595.4,286047001.3,N
1508392615.2,286047004.2,N
1508392635.1,286047002.6,N
1508392636.0,286047002.6,N
1508392655.8,286046998.1,N
1508392675.6,286046999.5,N
1508392695.5,286047000.9,N
1508392715.3,286047001.2,N
1508392735.1,286047002.3,N
1508392755.8,286047002.7,N
1508392775.7,286046998.9,N
1508392795.5,286046996.2,N
